Theta_e
320 320 320 322 323 322 322 321 320 319 319 319 319 319 318 317 317 318 317 316 315 317 318 319 320 321 321 321 323 324 325 326 327 327 326 325 325 325 326 327 326 325 326 327 327 328 332 333 330 329 328 327 328 328 329 329 328 327 327 328 329 330 331
320 321 322 323 322 321 320 320 319 319 318 318 318 318 317 316 315 316 315 314 313 314 315 316 317 319 319 319 321 321 322 324 325 324 323 322 323 324 325 325 324 325 326 326 325 325 328 332 332 331 325 322 326 326 326 328 328 328 328 327 327 328 328
320 321 322 321 321 320 320 320 320 320 318 316 316 316 316 315 315 315 315 314 314 314 314 314 314 316 317 317 317 319 320 321 321 319 318 317 319 321 324 325 325 325 324 322 323 324 325 326 327 326 319 318 324 325 322 325 326 327 327 327 328 328 326
320 321 321 319 320 321 321 321 320 319 317 314 313 313 314 314 315 316 315 315 316 316 316 315 314 315 316 315 315 316 318 318 318 317 316 316 316 317 319 321 320 319 317 316 317 319 320 320 322 320 314 313 319 318 317 320 322 322 323 324 324 323 321
320 320 319 319 321 321 320 320 319 317 316 315 314 313 312 312 314 314 315 315 316 317 316 316 315 314 315 315 315 315 315 316 315 315 315 315 315 315 315 315 315 315 314 314 314 314 314 315 316 315 312 313 316 314 313 315 317 319 320 320 318 316 317
321 319 318 320 321 321 319 318 317 316 316 316 315 313 311 311 312 312 313 314 316 317 316 315 315 314 313 312 312 311 313 315 315 314 314 315 314 314 314 313 313 314 314 314 313 313 313 312 312 312 312 313 314 313 312 313 314 316 316 315 313 313 315
321 318 317 320 321 320 319 317 316 315 315 315 314 312 311 312 313 313 311 312 315 316 315 315 316 315 313 311 310 310 310 312 315 315 314 313 313 313 313 313 313 313 314 314 314 313 312 312 312 313 312 312 312 312 312 313 313 313 313 312 312 312 313
321 319 317 320 321 320 319 318 316 315 313 313 312 311 312 314 314 314 312 310 310 312 314 316 316 317 315 312 310 311 309 309 311 313 314 313 313 313 311 311 312 313 312 313 314 313 313 313 313 313 313 314 316 315 312 313 313 311 311 312 312 311 311
321 319 318 319 320 319 319 318 317 316 314 313 312 312 313 314 314 315 314 311 308 308 313 316 316 316 316 313 310 310 313 312 310 310 313 314 314 313 311 309 309 311 309 308 310 312 313 312 312 312 313 314 317 320 319 318 316 313 310 310 311 309 308
321 320 318 319 318 318 319 319 318 317 316 316 315 314 313 314 315 315 315 313 310 308 311 316 316 315 315 315 312 310 313 315 313 311 312 314 314 313 312 310 309 308 308 306 307 311 312 312 311 311 312 312 314 320 322 322 319 314 310 310 310 308 306
321 320 319 319 318 318 319 319 319 318 318 317 318 316 315 315 316 316 315 315 313 310 311 313 315 315 314 314 315 312 312 315 316 313 312 313 313 313 313 313 310 309 310 309 308 309 310 310 310 309 310 310 311 313 314 317 318 314 310 309 309 308 306
320 320 320 319 319 319 319 319 319 319 319 318 318 318 316 316 316 316 315 315 315 314 312 311 313 315 314 314 316 314 313 314 315 314 313 313 312 312 313 313 312 310 310 311 309 309 309 309 309 309 309 309 309 310 310 311 314 313 309 309 308 307 307
320 320 321 320 320 320 320 320 319 319 319 319 318 318 318 317 317 317 316 316 316 316 316 313 313 314 313 313 316 316 314 315 313 313 314 314 311 311 312 313 313 310 309 311 310 309 309 309 309 309 310 310 310 310 310 309 311 311 308 308 307 307 308
320 320 321 321 321 321 320 320 319 319 320 319 319 318 318 318 318 318 317 317 317 317 317 316 315 315 313 313 315 316 315 315 314 313 314 315 312 311 311 312 312 310 308 310 310 309 309 309 309 308 309 311 309 309 310 309 309 308 307 307 308 307 306
321 321 321 321 321 320 321 321 320 319 319 319 319 319 319 319 319 318 318 318 318 318 318 318 317 317 315 314 314 315 315 314 314 314 315 315 314 311 311 311 312 311 309 308 307 308 308 308 308 309 308 308 308 307 308 308 308 307 307 307 307 306 306
322 322 321 322 322 321 321 321 320 319 319 319 320 319 319 319 319 319 318 318 319 318 318 318 319 319 318 317 315 314 314 314 314 314 314 315 315 314 312 311 312 312 311 310 307 306 308 308 308 308 308 307 307 307 307 307 306 307 307 307 306 306 305
323 323 323 322 321 321 321 321 321 320 320 320 320 320 320 320 319 319 319 319 319 319 319 319 319 319 319 319 318 315 315 315 314 314 314 315 315 314 313 312 311 311 311 311 309 306 307 308 309 309 308 307 307 306 306 306 305 305 305 305 305 305 304
321 321 322 321 320 320 321 321 321 321 321 321 321 321 321 320 320 320 319 320 319 319 320 320 320 320 319 319 319 317 316 315 315 315 314 315 314 314 314 313 312 311 310 310 310 308 307 308 309 309 308 308 306 305 304 304 304 304 303 302 302 302 302
318 319 320 321 321 322 321 322 321 320 319 320 321 321 321 321 321 321 320 320 320 320 320 319 319 320 320 320 319 319 318 317 316 315 315 315 314 314 314 314 314 312 310 310 310 310 308 308 309 309 308 307 305 302 301 300 300 300 299 299 299 299 299
320 321 322 322 323 323 323 322 320 320 319 320 320 320 321 321 321 321 321 321 320 320 319 319 319 320 320 320 318 318 319 317 316 316 316 315 316 315 314 314 314 313 312 311 311 310 309 308 308 308 307 306 303 301 300 299 297 296 296 296 297 298 298
322 322 322 322 323 323 323 322 321 320 320 321 321 321 320 320 321 321 321 321 321 321 320 319 319 319 320 318 317 317 318 318 317 316 316 316 316 315 314 314 314 313 313 312 311 310 310 308 307 307 306 305 303 302 300 298 297 297 297 298 298 298 299
318 319 319 320 321 323 323 322 321 321 321 321 321 322 321 321 321 321 322 321 321 321 321 320 320 319 319 318 317 318 319 318 318 317 316 316 316 316 315 314 314 313 313 312 311 310 310 308 307 306 305 305 303 302 300 299 300 300 300 300 300 300 300
314 313 314 315 317 319 319 319 320 320 320 321 321 321 321 321 321 321 321 321 321 321 321 320 320 320 319 319 319 319 319 319 319 318 317 317 316 316 315 314 314 313 312 312 311 310 309 308 307 306 305 305 303 302 301 301 301 301 301 300 300 300 299
312 311 311 311 312 313 314 315 315 316 317 317 318 319 319 320 320 320 320 320 320 321 321 321 321 320 320 320 320 320 320 319 319 319 319 317 316 316 315 314 314 313 312 311 311 310 309 307 307 306 305 304 303 301 301 302 301 301 300 300 299 299 299
309 309 309 309 309 310 310 310 311 311 312 313 313 314 315 317 318 319 319 320 320 320 319 319 320 320 321 321 320 320 320 319 319 319 319 317 316 316 315 314 313 312 311 311 310 309 308 306 306 305 304 303 302 302 302 302 301 301 300 300 300 300 299
308 308 309 309 309 309 309 309 309 309 309 309 310 310 311 312 313 314 316 317 318 319 319 318 318 319 320 320 321 321 320 319 319 319 318 317 316 315 314 313 312 311 310 310 309 308 307 306 305 304 304 303 302 302 302 302 302 301 300 299 299 298 298
308 308 309 309 309 309 308 307 308 308 309 309 309 310 310 310 311 311 312 312 313 314 316 318 319 319 318 318 320 320 321 320 319 318 318 317 316 315 314 312 310 309 309 308 307 307 306 305 305 304 303 302 302 302 302 302 301 300 298 297 297 297 297
307 308 309 309 309 309 308 307 307 308 309 309 309 310 311 311 311 311 311 311 311 312 312 315 318 319 318 318 319 320 320 320 319 317 316 316 316 314 312 310 309 309 309 308 306 306 305 305 304 303 302 301 301 301 301 301 300 298 298 297 297 297 297
308 308 309 309 309 308 308 308 307 308 308 308 309 310 310 310 310 310 311 312 312 312 312 313 315 318 319 318 318 319 319 318 317 315 315 315 314 312 311 310 309 308 307 306 305 305 305 304 303 302 301 301 301 300 300 299 298 298 297 297 297 297 297
307 307 308 308 308 308 308 309 309 309 309 309 309 310 310 310 310 310 311 311 311 311 311 311 313 315 317 318 318 318 318 316 314 313 312 311 310 309 308 307 307 305 305 304 304 304 303 303 302 302 301 300 300 299 299 298 298 297 297 297 297 296 296
306 306 306 306 306 307 307 308 308 308 309 309 309 309 309 309 310 310 310 310 311 311 311 311 312 314 316 318 318 317 316 313 311 310 308 307 306 306 306 305 305 305 304 304 304 303 302 302 301 301 300 299 298 298 298 297 297 296 296 295 295 295 294
306 306 306 306 306 307 307 307 308 308 308 308 309 309 309 309 310 310 310 311 311 311 311 312 312 314 315 316 315 315 313 311 309 307 306 305 305 305 305 304 304 304 304 303 302 302 301 300 300 299 298 297 296 296 296 295 294 294 294 293 293 292 292
305 306 306 306 306 306 306 307 308 308 309 309 309 309 309 309 310 310 310 311 311 311 311 311 312 313 313 312 312 311 310 309 307 305 304 303 303 301 301 301 300 300 299 299 299 298 298 298 297 297 296 296 295 294 294 293 293 292 292 292 292 292 292
305 305 305 305 305 305 305 306 306 307 308 309 310 310 310 310 310 310 310 310 310 310 310 310 310 309 309 309 309 308 308 307 305 303 301 299 299 298 297 297 297 297 297 296 296 296 296 296 296 296 295 294 293 293 293 292 292 292 292 292 292 292 292
304 304 305 305 305 305 305 306 306 306 307 309 309 309 309 309 309 309 309 309 309 309 309 308 308 307 306 305 305 305 305 303 302 301 299 297 296 296 296 296 296 296 296 296 296 296 296 296 295 294 294 293 293 293 292 292 292 292 292 291 291 291 291
304 304 305 305 305 306 306 306 307 307 306 307 308 308 308 308 308 308 308 307 307 308 307 306 305 304 303 303 302 303 302 301 299 299 298 297 296 295 295 296 296 296 296 296 296 295 295 294 294 293 293 293 293 292 292 292 292 291 291 291 290 290 290
305 305 305 305 304 304 305 305 305 305 305 305 306 307 307 307 307 307 306 306 306 305 304 303 302 302 302 302 301 301 301 300 298 298 298 297 295 295 295 295 295 295 295 295 294 294 294 293 293 293 293 293 293 292 292 291 291 290 290 290 290 290 290
Wind_Speed
22 20 19 18 16 13 12 10 9 9 8 7 8 8 8 9 10 9 9 9 9 8 7 8 9 9 9 9 8 7 6 6 4 4 5 3 1 4 6 3 3 2 1 1 2 2 2 1 2 2 1 2 2 3 4 4 5 6 7 8 8 7 7
22 22 21 19 17 15 13 12 10 9 8 7 8 9 9 10 11 10 9 8 9 9 8 9 9 8 9 9 8 8 7 8 7 7 8 6 4 3 4 1 1 2 2 2 2 3 4 2 0 2 3 4 2 1 2 3 4 6 8 8 9 9 7
24 24 22 20 19 16 15 14 12 10 9 8 9 9 9 10 11 10 9 9 11 11 11 10 9 8 8 7 7 8 9 10 10 10 10 9 7 6 5 3 3 4 3 4 4 4 4 3 2 1 3 5 3 4 6 4 3 4 4 5 6 5 6
27 27 24 22 21 19 18 16 14 12 10 10 10 10 9 10 10 9 8 9 10 11 11 11 10 9 8 7 7 8 9 10 9 9 9 9 9 10 10 8 7 7 6 6 6 6 4 4 3 1 4 5 3 4 8 7 4 4 4 4 3 2 2
29 28 26 25 24 22 20 18 17 14 12 12 11 10 10 10 10 9 8 8 8 9 10 10 9 8 8 7 7 7 8 8 8 7 9 10 10 11 11 10 10 9 9 9 8 7 6 5 4 2 4 5 3 5 10 10 10 9 6 6 7 9 10
28 26 26 27 25 23 21 20 19 17 16 14 12 11 11 11 11 10 9 8 7 8 8 8 7 7 7 7 7 8 8 8 8 8 10 11 10 10 10 9 8 8 9 9 7 7 6 5 5 4 3 3 3 4 9 11 13 15 15 16 16 14 13
26 24 25 26 26 24 21 21 21 19 18 16 13 12 12 12 11 9 8 8 7 7 7 6 5 6 7 7 8 9 8 7 8 8 9 9 9 9 8 7 7 8 8 7 6 6 6 6 6 5 2 3 3 4 7 9 12 14 13 14 16 15 15
25 23 24 25 25 24 22 21 20 18 17 16 14 13 13 13 12 10 8 7 7 7 7 5 4 4 4 5 6 8 8 7 7 8 8 8 8 8 6 6 6 7 6 5 5 6 6 7 8 7 4 3 3 4 5 6 9 13 12 9 11 15 15
24 23 22 24 23 23 22 21 19 18 16 15 15 14 14 13 11 10 8 6 7 8 8 6 4 3 3 4 5 6 7 8 7 8 9 8 7 7 6 5 5 5 5 4 4 5 6 7 8 8 8 6 4 2 3 4 5 8 12 10 8 12 15
24 23 22 22 22 22 23 21 18 17 16 15 15 14 14 13 11 10 8 6 7 7 9 8 5 3 1 2 3 4 5 6 6 7 8 9 7 6 5 5 5 6 7 6 5 5 4 4 6 7 8 8 6 3 1 3 3 2 8 12 9 11 15
22 23 22 20 21 22 23 22 20 19 18 17 16 15 14 13 12 10 8 7 7 7 9 9 7 4 2 1 1 1 2 3 3 3 5 6 6 4 4 4 5 7 8 8 8 7 6 5 4 5 6 6 7 5 4 1 1 1 5 10 10 12 16
22 23 22 20 22 23 23 23 22 21 20 18 17 17 16 15 13 12 10 8 8 7 7 8 7 6 4 4 2 1 1 1 0 1 1 2 2 2 3 3 3 4 5 5 7 7 7 7 6 6 6 5 6 7 5 3 1 2 6 9 11 14 15
22 21 20 22 23 23 23 23 22 21 21 20 19 19 18 16 15 14 12 11 10 10 9 8 8 7 6 6 5 4 3 2 2 3 2 1 1 2 3 2 1 2 2 2 4 4 4 4 5 5 4 5 6 6 6 4 1 5 8 9 12 14 14
21 18 19 23 24 23 23 23 22 21 20 21 21 20 20 18 16 15 14 13 11 11 10 9 8 8 7 8 8 7 7 6 5 5 5 4 3 2 4 3 0 1 1 1 1 2 3 3 4 5 4 4 6 5 6 6 4 7 10 11 13 15 16
21 20 20 23 24 23 22 22 23 21 20 20 21 21 21 19 18 17 15 14 13 12 11 10 9 9 9 10 10 10 10 9 9 8 8 8 6 4 4 5 3 2 2 2 1 2 2 2 4 5 5 4 6 7 7 8 7 7 12 15 16 17 18
21 20 18 18 18 18 18 19 20 21 19 19 20 22 22 21 20 18 17 16 15 14 13 12 11 11 10 10 11 12 12 11 11 11 11 11 10 8 7 6 6 5 5 3 2 2 1 1 3 4 4 4 6 7 8 10 10 8 11 15 17 18 19
17 18 18 17 14 14 16 17 17 16 16 17 17 19 21 21 21 20 19 19 18 17 16 15 15 14 13 13 12 12 13 13 13 14 13 13 13 12 11 9 8 7 7 5 3 3 2 2 3 3 3 4 5 7 8 9 10 9 10 13 17 18 18
11 11 14 16 15 13 14 15 16 14 13 14 15 15 16 18 20 21 21 21 20 19 17 17 18 18 18 17 16 15 15 15 16 16 16 16 15 15 14 13 11 9 9 8 6 5 4 3 5 5 5 7 7 8 9 10 11 11 12 14 17 19 19
10 9 9 10 13 14 13 14 16 15 15 14 13 12 12 13 16 19 20 20 20 18 17 16 17 19 20 20 19 18 18 19 19 19 19 18 17 17 17 16 14 12 12 10 8 7 6 6 6 6 7 8 9 10 11 12 13 13 14 15 15 17 19
10 10 8 7 9 12 14 14 13 14 17 17 13 12 12 12 13 15 16 18 18 17 17 17 17 18 19 20 20 20 21 22 22 22 21 20 19 18 18 17 17 15 14 13 11 9 8 8 8 7 8 8 8 10 13 14 14 14 14 15 15 16 18
9 9 8 9 10 12 15 15 14 15 16 15 12 12 13 13 13 12 12 13 14 16 18 19 19 19 19 19 19 19 20 22 24 24 24 23 23 21 19 19 18 18 17 16 13 11 10 9 8 8 8 8 8 11 13 12 13 13 13 14 15 15 18
5 4 5 8 10 12 13 12 12 11 11 10 10 12 13 14 14 13 13 13 14 15 17 19 20 20 20 21 22 21 20 22 24 26 26 26 25 25 22 20 20 19 19 18 16 14 12 10 9 9 9 8 9 11 12 11 11 11 12 14 15 16 18
5 5 5 6 7 8 8 7 7 6 6 7 8 10 11 12 12 12 13 14 14 15 17 18 19 19 20 20 22 22 22 22 24 26 26 26 27 26 24 23 22 21 21 20 19 17 15 11 10 10 10 10 11 11 11 10 10 10 11 13 14 15 16
5 4 4 4 4 3 3 2 2 2 2 3 4 5 7 8 9 9 10 10 11 13 14 16 17 17 17 18 20 20 21 22 23 24 24 25 27 27 26 24 23 23 23 22 20 17 14 11 10 10 10 10 11 11 10 9 10 11 12 12 14 15 15
4 3 4 4 3 3 3 3 3 3 3 3 3 3 3 5 6 8 9 10 10 10 10 10 11 13 14 15 17 19 20 21 21 20 20 22 25 26 26 25 24 25 25 23 20 16 12 10 10 9 9 9 10 10 10 10 11 11 11 12 14 16 16
3 3 3 4 4 4 4 4 4 5 5 5 4 5 5 5 6 7 8 9 10 11 11 10 9 10 11 11 13 15 17 18 19 20 20 20 21 24 26 27 26 26 23 20 17 13 11 11 10 10 10 10 11 11 12 12 11 11 11 12 14 16 17
0 0 1 1 1 1 2 3 4 5 6 6 6 6 6 7 8 8 9 9 9 10 11 11 12 12 11 11 11 12 13 15 16 17 19 20 21 23 26 27 26 23 19 16 14 13 12 12 11 11 11 12 12 12 12 11 11 11 12 13 14 16 16
3 3 2 2 3 3 4 5 5 6 7 7 7 7 7 8 8 9 10 10 10 11 11 11 13 14 13 12 12 11 11 12 13 14 16 20 21 23 25 25 23 19 17 15 14 13 13 12 12 12 12 12 11 11 10 10 11 12 13 14 15 15 16
1 1 2 3 4 5 6 7 7 8 8 8 8 8 8 8 9 10 10 11 12 12 12 12 12 14 15 14 13 12 10 10 12 13 16 17 18 20 21 20 18 17 16 14 12 11 11 11 11 11 11 11 10 10 9 10 11 12 13 14 14 15 15
4 3 2 2 3 4 5 7 7 8 8 9 9 9 9 10 10 11 11 12 13 13 13 12 12 14 16 15 14 12 10 10 11 11 11 12 14 15 15 14 15 15 13 11 9 10 10 10 11 11 10 9 9 9 10 11 12 12 13 14 15 16 18
6 6 6 7 7 7 7 8 8 8 9 9 9 10 10 11 11 12 13 13 13 13 13 12 11 12 14 13 12 12 12 12 13 14 14 15 14 14 13 12 11 11 9 9 10 11 11 11 11 10 9 8 9 11 12 13 14 15 16 17 18 19 20
9 9 10 10 9 9 9 9 10 11 12 12 11 10 10 10 11 11 12 12 12 11 11 10 9 9 10 9 10 12 13 14 16 16 15 15 13 11 10 9 7 7 7 8 9 9 9 9 8 7 7 8 10 12 13 14 15 16 16 17 16 16 16
10 10 10 10 10 10 10 10 9 10 11 11 11 10 10 10 9 9 9 9 9 9 8 7 5 5 6 7 9 11 13 15 16 16 14 13 12 10 8 7 6 5 5 5 5 6 5 5 5 6 8 10 12 12 12 12 12 12 13 14 14 15 16
9 10 11 12 13 14 14 13 13 12 11 11 10 9 8 7 7 6 6 6 6 6 5 4 2 3 4 7 9 10 12 14 15 16 15 13 11 10 9 7 6 5 4 4 3 3 4 5 7 9 11 11 11 10 10 11 11 11 13 14 15 16 16
9 11 12 13 15 16 16 16 14 12 11 11 10 8 7 7 6 6 5 5 4 4 3 3 4 4 6 7 8 9 11 12 13 14 13 11 8 7 6 5 5 4 3 3 3 5 7 9 10 10 9 8 7 7 9 10 11 12 13 14 15 16 16
10 10 10 10 11 13 13 13 11 9 9 9 9 9 9 9 8 7 6 6 5 6 6 6 6 6 7 8 8 8 10 11 10 10 9 8 7 6 6 5 4 3 2 4 5 7 8 8 8 6 5 5 6 8 9 9 10 11 12 13 14 16 17
9 9 9 9 10 11 11 11 11 11 11 11 9 10 12 12 11 10 9 9 9 9 10 9 9 8 8 8 8 8 8 9 8 7 7 7 6 6 5 3 1 1 3 4 5 5 5 5 5 5 5 6 6 7 8 9 10 11 13 14 16 17 18
Wind_Direction
154 150 148 149 150 152 150 145 139 136 138 138 132 125 118 115 116 113 104 95 93 103 113 109 105 103 103 99 92 87 84 95 108 108 111 107 126 189 193 218 280 256 205 79 94 102 124 130 341 358 348 308 259 241 221 204 207 217 216 211 208 203 200
156 153 152 152 155 157 152 148 144 136 128 130 132 126 117 111 112 113 108 93 83 90 103 108 112 114 112 109 103 97 98 104 104 95 92 87 84 128 159 164 50 98 66 49 69 61 74 94 338 329 353 357 355 345 290 245 220 212 215 220 220 218 230
160 157 155 156 158 156 150 148 148 144 135 131 133 131 123 117 114 111 104 92 82 84 92 96 103 113 116 117 115 110 110 111 109 104 95 91 89 92 111 124 100 93 64 47 62 57 54 70 75 10 358 3 359 24 24 351 278 240 231 230 224 227 255
163 159 158 158 162 162 157 156 156 152 146 138 133 130 130 130 126 119 107 96 89 86 87 87 91 101 108 110 114 116 119 118 117 116 106 100 98 93 96 104 101 96 92 79 75 75 73 70 70 9 352 8 2 19 29 24 9 335 303 288 293 359 13
167 164 161 161 165 167 163 162 161 159 155 150 144 136 135 141 140 135 125 112 103 96 88 84 82 86 93 96 100 108 117 119 122 126 117 107 108 104 99 101 101 97 94 92 90 85 80 80 92 72 1 13 11 22 34 45 50 43 39 49 50 56 61
172 171 167 166 170 171 168 168 167 165 163 161 160 155 146 143 142 139 137 129 118 109 99 89 80 78 82 90 97 101 111 120 122 122 117 110 108 108 107 108 107 101 97 97 99 97 93 94 93 78 32 34 24 24 39 52 63 67 69 65 60 62 59
177 177 172 171 174 176 176 174 172 170 170 170 165 159 153 147 141 137 137 137 135 133 123 108 97 86 81 87 93 91 98 119 132 127 119 114 111 109 112 116 111 105 102 102 100 97 99 98 80 57 54 77 49 36 50 57 64 65 60 52 48 51 51
183 183 178 176 177 181 182 179 176 175 173 172 165 156 155 154 148 140 136 135 139 148 149 137 123 109 83 73 83 88 89 99 127 137 129 120 117 110 105 114 122 113 102 103 102 92 92 89 74 56 60 92 60 24 34 47 55 51 42 37 37 38 38
187 187 184 182 183 186 188 185 183 180 173 168 165 160 159 158 153 148 144 138 140 149 157 155 142 133 105 59 79 106 103 90 101 128 133 126 115 101 91 95 114 110 89 93 110 106 96 82 72 64 60 73 90 49 4 8 31 41 32 27 25 23 24
191 191 189 188 189 191 193 193 191 187 179 171 168 165 163 163 160 158 156 147 142 149 159 161 153 144 144 30 66 103 113 94 86 108 127 130 119 101 89 78 79 87 79 80 96 112 111 83 70 65 56 58 72 101 103 10 338 349 21 19 13 8 11
195 195 195 193 193 194 197 200 200 196 190 182 177 173 170 169 168 167 164 156 147 149 161 167 165 169 221 279 51 66 102 97 75 88 118 132 128 116 106 81 76 90 87 81 86 89 88 77 62 54 51 48 47 68 113 82 333 309 3 6 7 1 2
199 197 199 201 199 200 202 204 205 204 198 192 187 183 179 177 175 176 172 168 162 157 164 173 175 184 213 233 232 252 253 121 195 232 126 119 129 141 139 106 79 92 90 85 91 87 77 69 57 48 52 50 41 42 53 64 68 330 341 347 355 357 358
196 195 203 209 206 206 207 207 208 208 204 200 195 191 189 185 184 186 183 179 177 172 171 175 181 189 201 220 227 233 247 246 227 232 238 270 280 178 171 158 70 68 68 87 91 76 56 44 33 29 36 40 35 20 8 19 324 303 328 341 344 349 354
189 194 209 216 214 212 212 211 211 208 204 204 202 198 196 194 195 196 194 191 189 185 181 179 185 193 198 211 221 224 234 241 238 240 237 248 264 208 190 203 186 14 339 150 117 29 21 26 20 19 19 19 23 15 358 355 330 311 325 336 338 343 347
192 198 211 218 216 214 213 212 212 211 207 205 206 204 202 201 203 205 203 202 199 197 196 193 195 202 204 210 218 221 224 229 234 239 236 237 245 233 211 216 229 266 270 226 232 315 2 33 25 26 37 34 26 29 21 6 356 334 326 329 333 338 341
193 196 204 210 211 210 207 206 209 212 211 210 210 209 208 207 207 209 211 211 207 204 206 209 211 215 218 218 222 224 226 229 231 235 237 236 237 236 229 225 233 245 248 254 297 299 264 21 10 17 30 28 19 18 15 7 3 356 335 327 328 333 337
182 189 194 193 196 200 196 196 205 212 210 207 208 210 212 214 213 212 213 214 213 211 212 217 221 223 226 227 228 229 230 233 234 235 237 236 235 234 233 230 232 233 232 240 273 279 249 303 328 335 344 345 345 345 347 350 352 352 343 330 325 326 331
181 195 197 193 199 207 204 205 217 225 218 206 201 203 210 215 217 217 217 217 215 215 216 221 226 230 232 231 231 232 234 236 238 237 236 235 233 232 232 233 232 229 229 232 245 258 249 261 288 300 310 317 324 329 331 331 333 334 333 331 325 321 323
214 227 224 211 218 226 225 222 224 232 237 229 214 209 211 215 217 220 223 221 219 221 224 228 231 233 235 235 235 236 237 239 241 241 240 237 234 233 232 233 232 230 231 234 238 243 240 247 268 282 295 306 315 322 325 324 322 322 323 325 325 322 324
225 233 237 235 241 241 235 232 231 233 238 236 228 226 230 228 224 223 226 228 229 233 236 238 238 236 235 238 240 240 240 242 244 244 245 243 240 237 234 230 229 228 229 234 238 236 239 252 266 277 288 297 306 319 324 322 320 322 325 326 327 328 328
231 239 244 248 257 255 246 242 241 236 235 237 239 241 242 238 233 229 230 236 243 245 244 243 242 241 240 241 246 249 246 244 244 244 245 245 243 241 237 232 228 226 224 228 234 236 240 253 265 273 280 284 298 317 323 321 321 326 330 330 330 332 330
207 217 235 245 248 250 250 247 241 235 237 245 250 251 250 248 246 246 248 252 256 255 252 249 248 248 247 248 255 261 256 248 246 244 243 243 241 239 237 234 229 224 220 220 224 229 233 244 260 268 272 278 297 315 318 316 322 327 328 328 328 331 331
185 198 219 238 239 240 247 249 247 248 249 254 259 259 260 260 260 262 264 264 261 258 256 255 255 256 256 257 260 262 260 255 250 246 243 243 240 236 233 232 228 222 218 218 220 222 224 231 243 253 260 273 296 310 311 311 317 320 320 321 322 326 327
195 209 212 219 225 229 247 259 274 284 274 281 287 283 279 275 273 275 278 275 268 263 262 262 262 263 263 263 261 260 260 258 253 248 246 244 239 233 228 227 224 217 214 216 218 219 223 230 236 242 250 266 286 297 299 303 307 309 310 313 316 319 318
145 142 137 126 117 107 87 74 69 60 49 35 18 0 336 313 302 295 289 284 279 276 276 278 275 271 268 265 262 260 259 256 250 248 246 242 237 231 225 219 214 211 211 213 215 217 222 229 235 242 254 268 279 285 288 289 292 296 302 307 310 311 310
105 112 124 115 101 88 70 55 48 36 24 17 8 358 352 344 339 333 319 306 295 286 283 284 283 280 277 273 267 263 262 259 254 250 247 241 236 230 223 214 208 206 207 209 212 215 219 225 234 245 259 269 273 274 277 279 280 286 295 302 303 303 306
10 52 132 136 107 52 12 2 7 4 360 358 353 346 342 338 339 338 334 328 319 307 296 284 275 273 276 278 272 264 263 265 263 257 251 244 238 232 223 213 204 199 200 205 210 211 216 225 237 250 260 266 266 266 267 271 276 285 294 298 298 298 302
279 266 250 265 289 309 320 323 326 327 331 336 337 336 336 333 330 326 322 320 318 318 314 297 276 264 265 272 272 264 259 260 261 258 252 246 239 229 218 209 202 200 203 209 210 211 219 228 240 251 259 260 258 256 257 266 274 282 289 291 291 292 293
333 274 244 258 264 274 290 294 294 298 303 306 311 316 318 318 318 315 313 312 313 314 314 309 289 271 264 266 267 265 257 249 247 244 241 236 227 216 210 207 203 201 202 202 204 213 226 239 250 255 253 248 247 247 253 265 273 278 283 286 287 287 286
29 29 11 326 291 283 284 280 278 278 280 285 292 300 306 309 308 307 306 306 308 310 311 311 301 282 269 262 259 256 244 227 219 210 201 196 191 187 187 191 191 187 188 195 211 230 243 249 252 250 244 241 248 256 264 269 273 276 279 280 281 282 282
1 356 346 340 331 319 306 296 290 283 279 282 286 290 296 300 299 299 302 303 306 309 307 307 301 284 269 260 252 241 223 203 188 174 163 160 163 167 169 177 188 194 203 223 236 241 242 242 241 244 250 261 270 276 281 283 283 284 283 283 284 284 285
335 334 329 326 326 324 317 308 302 293 284 279 278 280 283 287 290 294 298 302 307 310 309 307 299 279 262 250 237 222 207 189 174 167 166 165 166 173 180 188 201 212 220 228 231 232 234 239 248 262 276 287 293 294 296 296 296 296 296 296 298 299 300
323 323 320 317 318 321 319 317 313 305 291 275 265 264 264 267 275 281 287 295 300 305 310 310 298 271 244 226 215 205 196 184 171 162 163 165 163 163 168 173 178 187 201 211 220 231 245 262 282 297 305 307 307 307 306 305 306 307 307 309 311 312 313
320 317 313 309 309 309 310 309 306 306 299 279 261 249 243 244 253 260 267 279 285 289 294 290 258 222 207 200 199 196 187 178 170 161 153 150 148 146 148 157 161 168 191 214 232 260 285 304 311 313 312 310 309 310 311 311 312 311 310 311 313 313 315
312 308 305 304 302 301 301 300 298 299 294 276 256 236 225 226 230 234 238 246 251 245 235 223 201 186 179 173 175 179 170 160 161 161 153 144 143 147 151 161 169 181 209 238 269 296 309 314 315 312 308 304 305 310 310 309 309 310 310 312 314 315 316
300 296 295 297 298 298 298 296 295 301 303 285 257 232 221 217 218 219 212 202 199 197 193 191 183 173 167 160 157 161 160 156 160 167 164 159 162 164 164 169 181 204 255 293 307 313 314 314 314 309 301 297 300 305 305 305 307 309 311 313 313 313 314
279 277 281 291 298 298 298 296 295 299 306 304 274 236 222 215 211 209 201 190 186 185 182 178 174 173 176 175 168 166 166 165 170 180 183 177 171 166 163 165 177 310 324 320 315 314 317 317 315 308 298 293 296 302 307 311 314 314 312 310 309 308 309